TimeCST,TemperatureF,Dew PointF,Humidity,Sea Level PressureIn,VisibilityMPH,Wind Direction,Wind SpeedMPH,Gust SpeedMPH,PrecipitationIn,Events,Conditions,WindDirDegrees,DateUTC
12:04 AM,42.8,37.4,81,29.76,9.0,NNE,4.6,-,N/A,,Overcast,30,2012-12-17 06:04:00
12:51 AM,41.0,36.0,82,29.76,9.0,NE,4.6,-,N/A,,Overcast,40,2012-12-17 06:51:00
1:51 AM,41.0,36.0,82,29.75,9.0,NE,4.6,-,N/A,,Overcast,40,2012-12-17 07:51:00
2:48 AM,41.0,35.6,81,29.74,8.0,NE,4.6,-,N/A,,Overcast,50,2012-12-17 08:48:00
2:51 AM,41.0,36.0,82,29.75,7.0,ENE,6.9,-,N/A,,Overcast,70,2012-12-17 08:51:00
3:51 AM,41.0,36.0,82,29.73,6.0,NNE,6.9,-,N/A,,Haze,20,2012-12-17 09:51:00
4:51 AM,39.9,36.0,86,29.73,4.0,NNE,5.8,-,N/A,,Overcast,20,2012-12-17 10:51:00
5:25 AM,39.2,37.4,93,29.72,3.0,North,4.6,-,0.00,Rain,Light Rain,10,2012-12-17 11:25:00
5:51 AM,39.9,37.0,89,29.72,3.0,NE,6.9,-,0.00,Rain,Light Rain,40,2012-12-17 11:51:00
6:51 AM,41.0,37.0,86,29.74,3.0,Calm,Calm,-,0.00,Rain,Light Rain,0,2012-12-17 12:51:00
7:34 AM,39.2,37.4,93,29.69,2.5,ENE,9.2,-,0.05,Rain,Light Rain,60,2012-12-17 13:34:00
7:51 AM,39.9,37.0,89,29.72,2.5,North,8.1,-,0.06,Rain,Light Rain,360,2012-12-17 13:51:00
8:37 AM,39.2,37.4,93,29.71,3.0,North,4.6,-,0.01,Rain,Light Rain,360,2012-12-17 14:37:00
8:51 AM,39.9,37.0,89,29.73,3.0,NNW,4.6,-,0.01,Rain,Light Rain,340,2012-12-17 14:51:00
9:51 AM,41.0,37.0,86,29.74,3.0,North,3.5,-,0.00,,Overcast,350,2012-12-17 15:51:00
10:51 AM,41.0,37.0,86,29.73,3.0,NNW,6.9,-,N/A,,Overcast,340,2012-12-17 16:51:00
11:17 AM,41.0,37.4,87,29.71,2.0,NNW,5.8,-,0.00,,Light Drizzle,330,2012-12-17 17:17:00
11:30 AM,41.0,37.4,87,29.70,1.8,NNW,6.9,-,0.00,,Light Drizzle,330,2012-12-17 17:30:00
11:51 AM,41.0,37.0,86,29.71,1.5,NNW,6.9,-,0.00,,Light Drizzle,330,2012-12-17 17:51:00
12:51 PM,41.0,37.9,89,29.70,1.5,WNW,6.9,-,0.00,,Light Drizzle,300,2012-12-17 18:51:00
12:55 PM,41.0,37.4,87,29.69,1.0,WNW,5.8,-,0.00,,Light Drizzle,300,2012-12-17 18:55:00
1:47 PM,39.2,37.4,93,29.70,1.8,NW,9.2,-,0.00,,Light Drizzle,310,2012-12-17 19:47:00
1:51 PM,39.9,37.0,89,29.72,1.8,NW,9.2,-,0.00,Rain,Light Rain,310,2012-12-17 19:51:00
2:01 PM,39.2,37.4,93,29.70,2.5,WNW,8.1,-,0.00,Rain,Light Rain,300,2012-12-17 20:01:00
2:29 PM,39.2,37.4,93,29.70,4.0,NW,10.4,-,0.00,Rain,Light Rain,310,2012-12-17 20:29:00
2:44 PM,39.2,35.6,87,29.70,6.0,WNW,6.9,-,0.00,Rain,Light Rain,300,2012-12-17 20:44:00
2:51 PM,39.9,36.0,86,29.72,6.0,NW,8.1,-,0.00,Rain,Light Rain,310,2012-12-17 20:51:00
3:51 PM,39.9,36.0,86,29.73,7.0,WNW,8.1,-,0.00,Rain,Light Rain,300,2012-12-17 21:51:00
6:51 PM,39.9,35.1,83,29.77,5.0,WNW,8.1,-,0.00,,Haze,290,2012-12-18 00:51:00
7:51 PM,39.9,35.1,83,29.78,7.0,West,8.1,-,N/A,,Overcast,280,2012-12-18 01:51:00
8:51 PM,39.9,33.1,77,29.80,7.0,WNW,9.2,-,N/A,,Overcast,290,2012-12-18 02:51:00
9:51 PM,39.9,33.1,77,29.81,9.0,West,11.5,-,N/A,,Overcast,280,2012-12-18 03:51:00
10:51 PM,39.0,33.1,79,29.83,8.0,West,6.9,-,N/A,,Mostly Cloudy,280,2012-12-18 04:51:00
11:06 PM,37.4,30.2,75,29.80,8.0,West,4.6,-,N/A,,Scattered Clouds,280,2012-12-18 05:06:00
11:51 PM,37.0,32.0,82,29.83,7.0,Calm,Calm,-,N/A,,Mostly Cloudy,0,2012-12-18 05:51:00